Change the Weather History Date:

Wednesday, December 26, 2012

  Actual Average Record
Temperature  
Mean Temperature 52 °F 49 °F  
Max Temperature 65 °F 61 °F 81 °F (1942)
Min Temperature 39 °F 38 °F 10 °F (1983)
Degree Days  
Heating Degree Days 13 16  
Month to date heating degree days 207 363  
Since 1 July heating degree days 542 633  
Cooling Degree Days 0 0  
Month to date cooling degree days 2 0  
Year to date cooling degree days 2805 2533  
Growing Degree Days 2 (Base 50)    
Moisture  
Dew Point 44 °F    
Average Humidity 71    
Maximum Humidity 84    
Minimum Humidity 58    
Precipitation  
Precipitation 0.56 in - 0.56 in (2012)
Month to date precipitation 2.61  
Year to date precipitation 30.04  
Sea Level Pressure  
Sea Level Pressure 29.79 in    
Wind  
Wind Speed 16 mph (WSW)    
Max Wind Speed 26 mph    
Max Gust Speed 36 mph    
Visibility 8 miles    
Events Rain , Thunderstorm    
T = Trace of Precipitation, MM = Missing Value Source: NWS Daily Summary

Daily Weather History Graph

Daily Weather History Graph

Search for Another Location

Airport or City:

Trip Planner

Search our weather history database for the weather conditions in past years. The results will help you decide how hot, cold, wet, or windy it might be!

Date:

Astronomy

Dec. 26, 2012 Rise Set
Actual Time 7:34 AM EST 5:40 PM EST
Civil Twilight 7:07 AM EST 6:07 PM EST
Nautical Twilight 6:37 AM EST 6:38 PM EST
Astronomical Twilight 6:07 AM EST 7:07 PM EST
Moon 4:32 PM EST (12/26) 5:59 AM EST (12/26)
Length of Visible Light 10h 59m
Length of Day
10h 06m
Waxing Gibbous, 97% of the Moon is Illuminated
Dec 26
Waxing Gibbous
Dec 28
Full
Jan 4
Last Quarter
Jan 11
New
Jan 18
First Quarter

Hourly Weather History & Observations

Time (EST) Temp. Windchill Dew Point Humidity Pressure Visibility Wind Dir Wind Speed Gust Speed Precip Events Conditions
12:53 AM 64.0 °F - 57.0 °F 78% 29.70 in 10.0 mi SSE 18.4 mph 28.8 mph N/A   Overcast
1:53 AM 64.9 °F - 57.0 °F 75% 29.67 in 10.0 mi SSE 21.9 mph 29.9 mph N/A   Overcast
2:53 AM 64.0 °F - 59.0 °F 84% 29.63 in 7.0 mi SSE 18.4 mph 31.1 mph 0.01 in Rain Light Rain
3:27 AM 64.4 °F - 60.8 °F 88% 29.64 in 7.0 mi South 15.0 mph 23.0 mph 0.00 in Rain , Thunderstorm Thunderstorms and Rain
3:42 AM 64.4 °F - 62.6 °F 94% 29.64 in 3.0 mi South 10.4 mph - 0.07 in Rain Heavy Rain
3:48 AM 64.4 °F - 62.6 °F 94% 29.63 in 2.5 mi South 9.2 mph - 0.10 in Rain , Thunderstorm Heavy Rain
3:53 AM 64.0 °F - 62.1 °F 93% 29.62 in 1.5 mi SSW 24.2 mph 35.7 mph 0.23 in Rain , Thunderstorm Heavy Rain
3:58 AM 64.4 °F - 62.6 °F 94% 29.65 in 0.8 mi West 21.9 mph 35.7 mph 0.28 in Rain , Thunderstorm Heavy Thunderstorms and Rain
4:06 AM 60.8 °F - 57.2 °F 88% 29.65 in 1.0 mi WSW 13.8 mph 31.1 mph 0.32 in Rain , Thunderstorm Thunderstorms and Rain
4:09 AM 60.8 °F - 57.2 °F 88% 29.65 in 3.0 mi WSW 13.8 mph 29.9 mph 0.32 in Rain Light Rain
4:12 AM 60.8 °F - 55.4 °F 82% 29.65 in 8.0 mi WSW 11.5 mph 26.5 mph 0.32 in Rain Light Rain
4:53 AM 57.9 °F - 50.0 °F 75% 29.65 in 10.0 mi WSW 9.2 mph - 0.32 in Rain Light Rain
5:53 AM 57.0 °F - 50.0 °F 77% 29.67 in 10.0 mi SW 9.2 mph - 0.00 in   Overcast
6:53 AM 55.9 °F - 48.0 °F 75% 29.68 in 10.0 mi SW 12.7 mph 21.9 mph N/A   Scattered Clouds
7:53 AM 55.0 °F - 44.1 °F 67% 29.70 in 10.0 mi WSW 17.3 mph 26.5 mph N/A   Clear
8:53 AM 55.0 °F - 45.0 °F 69% 29.71 in 10.0 mi West 11.5 mph 26.5 mph N/A   Mostly Cloudy
9:00 AM 55.4 °F - 44.6 °F 67% 29.72 in 10.0 mi West 17.3 mph 24.2 mph N/A   Scattered Clouds
9:53 AM 54.0 °F - 42.1 °F 64% 29.74 in 10.0 mi West 21.9 mph 33.4 mph N/A   Scattered Clouds
10:53 AM 51.1 °F - 37.0 °F 59% 29.79 in 10.0 mi West 21.9 mph 31.1 mph N/A   Scattered Clouds
11:53 AM 46.9 °F - 33.1 °F 59% 29.84 in 10.0 mi West 21.9 mph 32.2 mph N/A   Mostly Cloudy
12:53 PM 46.0 °F 38.3 °F 32.0 °F 58% 29.85 in 10.0 mi WNW 20.7 mph 28.8 mph N/A   Overcast
1:53 PM 45.0 °F 37.6 °F 32.0 °F 60% 29.85 in 10.0 mi West 17.3 mph 26.5 mph N/A   Overcast
2:53 PM 44.1 °F 36.8 °F 30.9 °F 60% 29.87 in 10.0 mi WNW 16.1 mph 26.5 mph N/A   Overcast
3:53 PM 43.0 °F 35.7 °F 30.9 °F 62% 29.91 in 10.0 mi WNW 15.0 mph 25.3 mph N/A   Overcast
4:53 PM 43.0 °F 35.7 °F 30.0 °F 60% 29.94 in 10.0 mi West 15.0 mph 23.0 mph N/A   Overcast
5:53 PM 42.1 °F 34.5 °F 30.0 °F 62% 29.96 in 10.0 mi WNW 15.0 mph 24.2 mph N/A   Overcast
6:53 PM 41.0 °F 33.1 °F 30.9 °F 67% 29.99 in 10.0 mi WNW 15.0 mph 26.5 mph N/A   Overcast
7:53 PM 39.9 °F 32.9 °F 30.0 °F 68% 30.02 in 10.0 mi WNW 11.5 mph - N/A   Overcast
8:53 PM 39.9 °F 32.5 °F 30.0 °F 68% 30.05 in 10.0 mi WNW 12.7 mph 17.3 mph N/A   Overcast
9:53 PM 39.9 °F 32.5 °F 30.0 °F 68% 30.05 in 10.0 mi NW 12.7 mph - N/A   Overcast
10:53 PM 39.9 °F 31.8 °F 30.0 °F 68% 30.06 in 10.0 mi NW 15.0 mph 23.0 mph N/A   Overcast
11:53 PM 39.0 °F 29.9 °F 30.0 °F 70% 30.06 in 10.0 mi NNW 17.3 mph 21.9 mph N/A   Overcast